Home > Weather > State College > Past weeks

Flag for USA Past Weather in State College, Pennsylvania, USA — Yesterday and Last 2 Weeks

Now
64 °F

Fog.


Feels Like: 64 °F
Forecast: 66 / 81 °F
Wind: No wind

Location: University Park Airport

Current Time: Jul 30, 2016 at 7:13:59 AM

Latest Report: Jul 30, 2016 at 5:53 AM


Visibility: 3 mi

Pressure: 29.99 "Hg

Humidity: 100%

Dew Point: 64 °F

Location of State CollegeLocation

Past Weather in State College — Graph

°F

State College Temperature Yesterday

Maximum temperature yesterday: 88 °F (at 4:53 PM)
Minimum temperature yesterday: 64 °F (at 5:53 AM)
Average temperature yesterday: 71 °F

High & Low Weather Summary for the Past Weeks

 TemperatureHumidityPressure
High95 °F (Jul 25, 3:53 PM)100% (Jul 24, 6:53 PM)30.29 "Hg (Jul 24, 6:53 PM)
Low55 °F (Jul 20, 5:53 AM)26% (Jul 23, 4:53 PM)29.87 "Hg (Jul 25, 3:53 PM)
Average73 °F71%30.05 "Hg
* Reported Jul 15 5:15 AM — Jul 30 5:53 AM, State College, Weather by CustomWeather, © 2016

Note: Actual official high and low records may vary slightly from our data, if they occured in-between our weather recording intervals... More about our weather records

Advertising

State College Weather History for the Previous 24 Hours

Scroll right to see more
 ConditionsComfort  
Time TempWeatherWind HumidityBarometerVisibility
5:53 AM
Sat, Jul 30
64 °FFog.No wind100%29.99 "Hg3 mi
5:35 AM64 °FFog.No wind99%29.98 "Hg4 mi
5:15 AM64 °FPassing clouds.No wind98%29.99 "Hg7 mi
4:55 AM65 °FPassing clouds.No wind98%29.99 "Hg7 mi
4:35 AM64 °FPassing clouds.No wind98%29.99 "Hg7 mi
4:15 AM65 °FPassing clouds.No wind96%29.98 "Hg7 mi
3:55 AM65 °FClear.No wind96%29.98 "Hg10 mi
3:35 AM65 °FFog.No wind98%29.98 "Hg4 mi
3:15 AM65 °FFog.No wind98%29.98 "Hg5 mi
2:55 AM65 °FPassing clouds.No wind97%29.99 "Hg7 mi
2:35 AM67 °FPassing clouds.No wind94%29.99 "Hg10 mi
2:15 AM66 °FPassing clouds.No wind96%29.99 "Hg10 mi
1:55 AM67 °FClear.No wind96%30.00 "Hg10 mi
1:35 AM67 °FClear.No wind94%29.99 "Hg10 mi
1:15 AM66 °FClear.No wind93%29.99 "Hg10 mi
12:55 AM68 °FClear.No wind88%29.99 "Hg10 mi
12:35 AM69 °FClear.No wind87%29.99 "Hg10 mi
12:15 AM69 °FClear.No wind84%29.99 "Hg10 mi
11:55 PM
Fri, Jul 29
69 °FClear.No wind85%29.99 "Hg10 mi
11:35 PM69 °FPassing clouds.No wind86%29.99 "Hg10 mi
11:15 PM71 °FClear.No wind82%29.99 "Hg10 mi
10:55 PM69 °FClear.No wind83%29.99 "Hg10 mi
10:35 PM72 °FClear.No wind76%29.99 "Hg10 mi
10:15 PM72 °FClear.No wind78%29.98 "Hg10 mi
9:55 PM72 °FClear.3 mph78%29.98 "Hg10 mi
8:53 PM73 °FSunny.No wind74%29.97 "Hg10 mi
7:53 PM77 °FSunny.5 mph69%29.95 "Hg10 mi
6:53 PM79 °FSunny.7 mph61%29.93 "Hg10 mi
5:53 PM82 °FScattered clouds.9 mph58%29.93 "Hg10 mi
4:53 PM88 °FSunny.6 mph43%29.91 "Hg10 mi
3:53 PM84 °FPartly sunny.5 mph48%29.91 "Hg10 mi
2:53 PM82 °FScattered clouds.5 mph58%29.92 "Hg10 mi
1:53 PM84 °FScattered clouds.7 mph55%29.93 "Hg10 mi
12:53 PM82 °FScattered clouds.No wind58%29.94 "Hg10 mi
11:53 AM79 °FScattered clouds.No wind70%29.94 "Hg10 mi
10:53 AM77 °FScattered clouds.3 mph74%29.95 "Hg10 mi
9:53 AM72 °FScattered clouds.3 mph88%29.96 "Hg7 mi
8:53 AM68 °FFog.No wind100%29.96 "Hg5 mi
7:53 AM66 °FFog.No wind100%29.95 "Hg1 mi
Weather by CustomWeather, © 2016

See weather overviewHow to use our weather pages